Location: Home
(42.5358°N, 72.7383°W)
Time: 18:29:24
(UTC-05:00)

Tiros 1 - Pass Details

Date: 03 December 2021
Orbit: 629 x 664 km, 48.4° (Epoch: 18 January)

Event Time Altitude Azimuth Distance (km) Brightness Sun altitude
Rises 16:31:54 0° 180° (S) 2,901 10.9 -3.0°
Reaches altitude 10° 16:36:08 10° 143° (SE) 2,006 9.6 -3.7°
Maximum altitude 16:37:11 11° 130° (SE) 1,963 9.4 -3.9°
Drops below altitude 10° 16:38:14 10° 116° (ESE) 2,013 9.3 -4.1°
Enters shadow 16:41:22 - 86° (E) 2,608 9.7 -4.6°
Sets 16:42:31 0° 79° (E) 2,936 - -4.8°
